Flag for Gaza Strip Weather past 2 weeks in Khan Yunis, Gaza Strip

Now
43 °F

Clear.


Feels Like: 43 °F
Forecast: 50 / 68 °F
Wind: 2 mph from South

Location: El Arish

Current Time: Dec 26, 2014 at 8:40:23 AM

Latest Report: Dec 26, 2014 at 7:00 AM


Visibility: 4 mi

Pressure: 30.04 "Hg

Humidity: 100%

Dew point: 43 °F

Location of Khan YunisLocation

Historic Weather in Khan Yunis — Graph

°F

Khan Yunis temperature yesterday

Maximum temperature yesterday: 70 °F (at 2:00 PM)
Minimum temperature yesterday: 46 °F (at 4:00 AM)
Average temperature yesterday: 56 °F

Past Weeks' High & Low Weather Summary

 TemperatureHumidityPressure
High72 °F (Dec 13, 2:00 PM)100% (Dec 11, 11:00 PM)30.30 "Hg (Dec 11, 11:00 PM)
Low43 °F (Dec 26, 4:00 AM)33% (Dec 12, 10:00 AM)29.86 "Hg (Dec 12, 4:00 AM)
Average59 °F77%30.11 "Hg
* Reported Dec 11 10:00 AM — Dec 26 7:00 AM, Khan Yunis, Weather by CustomWeather, © 2014

Note: Actual official high and low records may vary slightly from our data, if they occured in-between our weather recording intervals... More about our weather records

Advertising

Khan Yunis weather history for previous 24 hours

 ConditionsComfort  
Time TempWeatherWind HumidityBarometerVisibility
7:00 AM
Dec 26
43 °FClear.2 mph100%30.04 "Hg4 mi
4:00 AM43 °FClear.2 mph100%30.04 "Hg4 mi
3:00 AM45 °FClear.3 mph100%30.04 "Hg10 mi
2:00 AM45 °FClear.5 mph100%29.95 "Hg10 mi
1:00 AM46 °FClear.2 mph100%30.04 "Hg10 mi
12:00 AM48 °FClear.5 mph100%30.07 "Hg10 mi
11:00 PM
Dec 25
48 °FClear.5 mph100%30.07 "Hg10 mi
10:00 PM50 °FClear.3 mph94%30.09 "Hg10 mi
9:00 PM52 °FClear.No wind100%30.09 "Hg10 mi
8:00 PM54 °FClear.No wind94%30.09 "Hg10 mi
7:00 PM54 °FClear.No wind88%30.09 "Hg10 mi
6:00 PM59 °FClear.No wind77%30.09 "Hg10 mi
5:00 PM61 °FClear.2 mph72%30.09 "Hg10 mi
4:00 PM66 °FSunny.6 mph56%30.09 "Hg10 mi
2:00 PM70 °FSunny.2 mph43%30.12 "Hg10 mi
1:00 PM68 °FSunny.2 mph49%30.12 "Hg10 mi
11:00 AM68 °FSunny.No wind49%30.18 "Hg10 mi
10:00 AM61 °FSunny.No wind68%30.21 "Hg10 mi
9:00 AM55 °FClear.No wind82%30.21 "Hg4 mi
8:00 AM48 °FClear.No wind100%30.21 "Hg4 mi
Weather by CustomWeather, © 2014

See weather overviewHow to use our weather pages